Weather History for Guatemala Aeropuertola Aurora, Guatemala

Change the Weather History Date:

Thursday, July 4, 2013

  Actual Average Record
Temperature  
Mean Temperature 67 °F -  
Max Temperature 73 °F 74 °F - ()
Min Temperature 61 °F 60 °F - ()
Cooling Degree Days 2    
Growing Degree Days 17 (Base 50)    
Moisture  
Dew Point 62 °F    
Average Humidity 86    
Maximum Humidity 100    
Minimum Humidity 55    
Precipitation  
Precipitation 0.01 in - - ()
Sea Level Pressure  
Sea Level Pressure 30.26 in    
Wind  
Wind Speed 4 mph ()    
Max Wind Speed 14 mph    
Max Gust Speed -    
Visibility 5.8 miles    
Events Rain , Thunderstorm    
T = Trace of Precipitation, MM = Missing Value Source: Averaged Metar Reports

Daily Weather History Graph

Daily Weather History Graph

Search for Another Location

Airport:

Trip Planner

Search our weather history database for the weather conditions in past years. The results will help you decide how hot, cold, wet, or windy it might be!

Date:

Astronomy

Jul. 04, 2013 Rise Set
Actual Time 5:37 AM CST 6:35 PM CST
Civil Twilight 5:14 AM CST 6:59 PM CST
Nautical Twilight 4:46 AM CST 7:26 PM CST
Astronomical Twilight 4:18 AM CST 7:55 PM CST
Moon 2:43 AM CST (7/4) 3:49 PM CST (7/4)
Length of Visible Light 13h 44m
Length of Day
12h 57m
Waning Crescent, 11% of the Moon is Illuminated
Jul 4
Waning Crescent
Jul 8
New
Jul 15
First Quarter
Jul 22
Full
Jul 29
Last Quarter

Hourly Weather History & Observations

Time (CST) Temp. Dew Point Humidity Pressure Visibility Wind Dir Wind Speed Gust Speed Precip Events Conditions
12:00 AM 62.6 °F 62.6 °F 100% 30.30 in 6.2 mi SSW 4.6 mph - N/A   Light Drizzle
12:35 AM - - N/A% - 5.0 mi SW 4.6 mph - N/A   Mostly Cloudy
1:00 AM 62.6 °F 62.6 °F 100% 30.30 in 5.0 mi SW 4.6 mph - N/A   Mostly Cloudy
2:00 AM 62.6 °F 62.6 °F 100% 30.27 in 5.0 mi SSW 4.6 mph - N/A   Mostly Cloudy
2:10 AM - - N/A% - - North - - N/A   Unknown
3:00 AM 62.6 °F 60.8 °F 94% 30.27 in 6.2 mi Variable 2.3 mph - N/A   Mostly Cloudy
3:10 AM - - N/A% - 5.0 mi South 4.6 mph - N/A   Scattered Clouds
3:16 AM - - N/A% - 4.3 mi South 4.6 mph - N/A   Light Drizzle
4:00 AM 62.6 °F 60.8 °F 94% 30.27 in 5.0 mi South 4.6 mph - N/A   Mostly Cloudy
5:00 AM 62.6 °F 60.8 °F 94% 30.27 in 6.2 mi Calm Calm - N/A   Scattered Clouds
6:00 AM 62 °F 61 °F 94% 29.97 in 5 mi Calm Calm - -   Mist
6:00 AM 62.6 °F 60.8 °F 94% 30.27 in 5.0 mi Calm Calm - N/A   Mostly Cloudy
7:00 AM 62.6 °F 60.8 °F 94% 30.27 in - Calm Calm - N/A   Clear
8:00 AM 64.4 °F 60.8 °F 88% 30.30 in 6.2 mi Calm Calm - N/A   Mostly Cloudy
9:00 AM 66.2 °F 60.8 °F 83% 30.30 in 6.2 mi Calm Calm - N/A   Mostly Cloudy
10:00 AM 69.8 °F 60.8 °F 73% 30.33 in 6.2 mi Calm Calm - N/A   Mostly Cloudy
11:00 AM 73.4 °F 62.6 °F 69% 30.30 in 6.2 mi South 4.6 mph - N/A   Mostly Cloudy
12:00 PM 73 °F 60 °F 55% 29.95 in 25 mi South 4.6 mph - -   Partly Cloudy
12:00 PM 73.4 °F 60.8 °F 65% 30.30 in 6.2 mi South 4.6 mph - N/A   Mostly Cloudy
1:00 PM 73.4 °F 60.8 °F 65% 30.27 in 6.2 mi South 13.8 mph - N/A   Mostly Cloudy
2:00 PM 73.4 °F 60.8 °F 65% 30.24 in 6.2 mi South 13.8 mph - N/A   Partly Cloudy
2:15 PM - - N/A% - 6.2 mi South 13.8 mph - N/A   Light Drizzle
3:00 PM 71.6 °F 62.6 °F 73% 30.24 in 6.2 mi South 9.2 mph - N/A   Mostly Cloudy
3:45 PM - - N/A% - 6.2 mi South 9.2 mph - N/A   Light Drizzle
4:00 PM 68.0 °F 64.4 °F 88% 30.24 in 6.2 mi South 9.2 mph - N/A   Light Drizzle
4:25 PM - - N/A% - 6.2 mi SSW 9.2 mph - N/A   Mostly Cloudy
5:00 PM 68.0 °F 62.6 °F 83% 30.24 in 5.0 mi South 11.5 mph - N/A Rain Rain
5:15 PM - - N/A% - 4.3 mi South 11.5 mph - N/A   Light Drizzle
6:00 PM 66.2 °F 64.4 °F 94% 30.27 in 6.2 mi South 11.5 mph - N/A Rain , Thunderstorm Light Thunderstorms and Rain
6:22 PM - - N/A% - 6.2 mi South 6.9 mph - N/A   Mostly Cloudy
7:00 PM 66.2 °F 62.6 °F 88% 30.27 in 6.2 mi South 6.9 mph - N/A   Mostly Cloudy
8:00 PM 64.4 °F 62.6 °F 94% 30.30 in - North - - N/A   Mostly Cloudy
9:00 PM 64.4 °F 62.6 °F 94% 30.33 in 6.2 mi Calm Calm - N/A   Mostly Cloudy
10:00 PM 64.4 °F 62.6 °F 94% 30.33 in 6.2 mi Calm Calm - N/A   Mostly Cloudy
11:00 PM 64.4 °F 62.6 °F 94% 30.33 in 6.2 mi Calm Calm - N/A   Mostly Cloudy